Date String (YYYY-MM-DD hh:mm:ss) UTC,Instrument flags,Ambient pressure (hPa),Sample flow (lpm),Bypass flow (lpm),Sample temperature (°C),Ambient temperature (°C),ASC tube jacket temperature (°C),LED temperature (°C),Box temperature (°C),Sample RH (%),Span deviation,Mass concentration (μg/m³),Mass concentration (μg/m³),Mass concentration (μg/m³)
DateTimeUTC,F1_M11,P_M11,Q1_M11,Q2_M11,T1_M11,T2_M11,T3_M11,T4_M11,T5_M11,U1_M11,ZSPAN_M11,X0_M11,X2_M11,X1_M11
2022-05-29 15:00:00,,0812.2,5.00,0.00,29.1,28.2,00.0,38.0,31.0,17.2,0000.0,0003.77,0001.12,0000.65
2022-05-29 15:01:00,,0812.2,5.00,0.00,29.1,28.2,00.0,38.0,31.0,16.5,0000.0,0003.91,0001.15,0000.67
2022-05-29 15:02:00,,0812.2,5.00,0.00,29.1,28.2,00.0,38.0,31.0,15.5,0000.0,0004.14,0001.25,0000.70
2022-05-29 15:03:00,,0812.2,5.00,0.00,29.1,28.2,00.0,38.0,31.0,15.6,0000.0,0002.93,0001.25,0000.72
2022-05-29 15:04:00,,0812.1,5.00,0.00,29.1,28.2,00.0,38.0,31.0,15.8,0000.0,0003.17,0001.32,0000.74
2022-05-29 15:05:00,,0812.1,5.01,0.00,29.1,28.2,00.0,38.0,31.0,16.6,0000.0,0004.79,0001.34,0000.74
2022-05-29 15:06:00,,0812.1,5.00,0.00,29.1,28.2,00.0,38.0,31.0,16.3,0000.0,0006.74,0001.38,0000.76
2022-05-29 15:07:00,,0812.1,4.99,0.00,29.1,28.2,00.0,38.0,31.0,16.0,0000.0,0006.92,0001.42,0000.78
2022-05-29 15:08:00,,0812.1,5.01,0.00,29.2,28.2,00.0,38.0,31.0,16.0,0000.0,0007.04,0001.45,0000.80
2022-05-29 15:09:00,,0812.1,5.00,0.00,29.2,28.2,00.0,38.1,31.0,16.2,0000.0,0008.14,0001.55,0000.83
2022-05-29 15:10:00,,0812.1,5.00,0.00,29.2,28.2,00.0,38.1,31.0,15.5,0000.0,0008.35,0001.67,0000.87
2022-05-29 15:11:00,,0812.1,5.00,0.00,29.1,28.2,00.0,38.1,31.0,15.7,0000.0,0008.73,0001.82,0000.90
2022-05-29 15:12:00,,0812.1,5.00,0.00,29.1,28.2,00.0,38.1,31.0,15.5,0000.0,0008.98,0001.90,0000.93
2022-05-29 15:13:00,,0812.1,5.02,0.00,29.1,28.1,00.0,38.1,30.9,15.6,0000.0,0008.99,0001.90,0000.94
2022-05-29 15:14:00,,0812.1,5.00,0.00,29.1,28.1,00.0,38.1,30.9,16.2,0000.0,0008.97,0001.90,0000.94
2022-05-29 15:15:00,,0812.1,5.00,0.00,29.1,28.1,00.0,38.1,30.9,15.7,0000.0,0008.97,0001.89,0000.95
2022-05-29 15:16:00,,0812.0,5.00,0.00,29.1,28.1,00.0,38.1,30.9,15.8,0000.0,0008.30,0001.98,0000.96
2022-05-29 15:17:00,,0812.1,5.00,0.00,29.1,28.0,00.0,38.1,30.9,16.3,0000.0,0007.14,0001.97,0000.95
2022-05-29 15:18:00,,0812.1,5.00,0.00,29.1,28.0,00.0,38.1,30.9,16.5,0000.0,0007.33,0002.02,0000.94
2022-05-29 15:19:00,,0812.1,5.01,0.00,29.1,28.0,00.0,38.1,30.8,16.3,0000.0,0007.29,0002.01,0000.92
2022-05-29 15:20:00,,0812.1,5.01,0.00,29.0,28.0,00.0,38.1,30.8,16.4,0000.0,0005.54,0002.01,0000.90
2022-05-29 15:21:00,,0812.1,4.99,0.00,29.0,28.0,00.0,38.1,30.8,16.2,0000.0,0005.80,0002.04,0000.88
2022-05-29 15:22:00,,0812.1,4.99,0.00,29.0,27.9,00.0,38.0,30.8,16.8,0000.0,0005.22,0001.98,0000.85
2022-05-29 15:23:00,,0812.1,5.01,0.00,29.0,27.9,00.0,38.0,30.8,17.1,0000.0,0004.66,0001.91,0000.82
2022-05-29 15:24:00,,0812.1,5.01,0.00,29.0,27.9,00.0,38.0,30.8,17.2,0000.0,0004.97,0001.93,0000.82
2022-05-29 15:25:00,,0812.0,5.00,0.00,29.0,27.9,00.0,38.0,30.8,17.4,0000.0,0006.47,0002.07,0000.83
2022-05-29 15:26:00,,0812.0,5.01,0.00,29.0,27.9,00.0,38.0,30.8,17.1,0000.0,0006.68,0002.14,0000.82
2022-05-29 15:27:00,,0812.1,4.99,0.00,29.0,27.9,00.0,38.0,30.8,17.1,0000.0,0006.84,0002.21,0000.83
2022-05-29 15:28:00,,0812.1,5.01,0.00,29.0,28.0,00.0,38.0,30.8,17.0,0000.0,0007.23,0002.35,0000.86
2022-05-29 15:29:00,,0812.0,5.01,0.00,29.0,28.0,00.0,38.0,30.8,16.2,0000.0,0007.50,0002.42,0000.90
2022-05-29 15:30:00,,0812.0,5.00,0.00,29.0,27.9,00.0,38.0,30.8,16.1,0000.0,0007.58,0002.51,0000.94
2022-05-29 15:31:00,,0811.9,5.01,0.00,29.0,27.9,00.0,38.0,30.8,16.5,0000.0,0007.91,0002.67,0000.98
2022-05-29 15:32:00,,0811.9,4.99,0.00,29.0,27.9,00.0,38.0,30.8,16.4,0000.0,0008.01,0002.69,0001.01
2022-05-29 15:33:00,,0811.9,4.99,0.00,29.0,27.9,00.0,38.0,30.7,15.8,0000.0,0008.17,0002.73,0001.04
2022-05-29 15:34:00,,0812.0,5.00,0.00,29.0,27.9,00.0,38.0,30.7,16.4,0000.0,0008.38,0002.84,0001.06
2022-05-29 15:35:00,,0811.9,5.01,0.00,28.9,27.9,00.0,38.0,30.7,16.4,0000.0,0008.83,0002.95,0001.09
2022-05-29 15:36:00,,0811.9,4.98,0.00,28.9,27.9,00.0,38.0,30.7,16.9,0000.0,0008.26,0002.95,0001.11
2022-05-29 15:37:00,,0811.9,4.99,0.00,28.9,27.9,00.0,38.0,30.7,16.9,0000.0,0008.58,0003.06,0001.14
2022-05-29 15:38:00,,0811.9,5.00,0.00,28.9,27.9,00.0,38.0,30.7,16.9,0000.0,0009.37,0003.07,0001.19
2022-05-29 15:39:00,,0811.9,4.99,0.00,28.9,27.9,00.0,38.0,30.7,16.7,0000.0,0009.57,0003.08,0001.23
2022-05-29 15:40:00,,0811.9,5.00,0.00,28.9,27.9,00.0,37.9,30.7,16.9,0000.0,0009.46,0003.09,0001.27
2022-05-29 15:41:00,,0811.9,5.00,0.00,28.9,27.9,00.0,37.9,30.7,17.2,0000.0,0009.86,0003.13,0001.30
2022-05-29 15:42:00,,0811.9,5.01,0.00,28.9,27.9,00.0,37.9,30.7,17.4,0000.0,0009.76,0003.15,0001.32
2022-05-29 15:43:00,,0811.8,5.00,0.00,28.9,27.9,00.0,37.9,30.7,17.6,0000.0,0009.69,0003.21,0001.37
2022-05-29 15:44:00,,0811.7,5.00,0.00,28.9,27.9,00.0,37.9,30.7,17.2,0000.0,0009.67,0003.27,0001.42
2022-05-29 15:45:00,,0811.8,5.00,0.00,28.9,27.9,00.0,37.9,30.7,17.3,0000.0,0010.10,0003.32,0001.46
2022-05-29 15:46:00,,0811.8,4.99,0.00,28.9,27.9,00.0,37.9,30.7,17.1,0000.0,0010.25,0003.38,0001.50
2022-05-29 15:47:00,,0811.8,4.99,0.00,28.9,27.9,00.0,37.9,30.7,17.7,0000.0,0010.71,0003.41,0001.53
2022-05-29 15:48:00,,0811.7,5.00,0.00,28.9,27.9,00.0,37.9,30.7,17.4,0000.0,0011.21,0003.48,0001.57
2022-05-29 15:49:00,,0811.7,5.00,0.00,28.9,27.9,00.0,37.9,30.7,17.6,0000.0,0010.82,0003.52,0001.61
2022-05-29 15:50:00,,0811.7,5.00,0.00,28.9,27.9,00.0,37.9,30.7,17.7,0000.0,0010.73,0003.60,0001.64
2022-05-29 15:51:00,,0811.7,5.01,0.00,28.9,27.9,00.0,37.9,30.7,17.6,0000.0,0010.81,0003.63,0001.68
2022-05-29 15:52:00,,0811.7,5.00,0.00,28.9,27.9,00.0,37.9,30.7,17.3,0000.0,0010.60,0003.70,0001.74
2022-05-29 15:53:00,,0811.7,5.00,0.00,28.9,27.9,00.0,37.9,30.7,18.2,0000.0,0011.21,0003.77,0001.80
2022-05-29 15:54:00,,0811.6,5.01,0.00,28.9,27.9,00.0,37.9,30.7,17.4,0000.0,0011.51,0003.78,0001.83
2022-05-29 15:55:00,,0811.6,5.00,0.00,28.9,27.9,00.0,37.9,30.8,17.1,0000.0,0011.67,0003.82,0001.89
2022-05-29 15:56:00,,0811.6,5.00,0.00,28.9,27.9,00.0,37.9,30.8,18.0,0000.0,0011.60,0003.89,0001.97
2022-05-29 15:57:00,,0811.6,4.99,0.00,29.0,27.9,00.0,37.9,30.8,17.7,0000.0,0011.44,0003.89,0002.04
2022-05-29 15:58:00,,0811.5,5.01,0.00,29.0,28.0,00.0,37.9,30.8,17.8,0000.0,0011.93,0003.94,0002.10
2022-05-29 15:59:00,,0811.6,5.00,0.00,29.0,28.0,00.0,37.9,30.8,17.6,0000.0,0011.26,0003.93,0002.15
